View from above orbital plane
|
View from above satellite
|
Ground track
|
The orbit data is extracted from the following two-line orbital elements,
1 21419U 91041B 21063.72348969 .00000048 00000-0 26396-4 0 9994
2 21419 74.0420 338.1563 0042006 293.3994 66.2743 14.33983760554608
Epoch (UTC): | 04 March 2021 17:21:49 |
Eccentricity: | 0.0042006 |
inclination: | 74.0420° |
perigee height: | 748 km |
apogee height: | 808 km |
right ascension of ascending node: | 338.1563° |
argument of perigee: | 293.3994° |
revolutions per day: | 14.33983760 |
mean anomaly at epoch: | 66.2743° |
orbit number at epoch: | 55460 |
The dashed part of the orbit path shows where the satellite is in the earth's shadow,
|
|